FW4072 Weather Reports


Display with metric or nautical units.
time (UTC)temp
F
wind
direction
speed
MPH
gust
MPH
rain 1hr
in
rain 24hr
in
rain mn
in
humidity
%
barometer
mb
20260903205358 64 0.0 0.0 0.00 0.08 0.08 78 1019.0
20260903204457 64 0.0 1.0 0.00 0.08 0.08 78 1019.1
20260903203558 63 0.0 0.0 0.00 0.08 0.08 77 1019.1
20260903202711 63 0.0 0.0 0.00 0.08 0.08 76 1019.0
20260903201750 64 0.0 0.0 0.00 0.08 0.08 76 1019.1
20260903200849 64 0.0 0.0 0.00 0.08 0.08 74 1019.1
20260903195049 64 0.0 0.0 0.00 0.08 0.08 73 1019.1
20260903194149 65 0.0 0.0 0.00 0.08 0.08 73 1019.2
20260903193247 65 0.0 1.0 0.00 0.08 0.08 72 1019.1
20260903192407 65 0.0 0.0 0.00 0.08 0.08 71 1019.2
20260903191448 65 0.0 0.0 0.00 0.08 0.08 71 1019.1
20260903190545 65 0.0 0.0 0.00 0.08 0.08 70 1019.2
20260903185645 66 0.0 0.0 0.00 0.08 0.08 69 1019.2
20260903184739 66 0.0 0.0 0.00 0.08 0.08 68 1019.4
20260903183838 67 0.0 0.0 0.00 0.08 0.08 66 1019.3
20260903182038 68 0.0 0.0 0.00 0.08 0.08 65 1019.1
20260903181137 68 0.0 1.0 0.00 0.08 0.08 64 1019.0
20260903180236 68 0.0 0.0 0.00 0.08 0.08 63 1019.0
20260903175335 69 0.0 1.0 0.00 0.08 0.08 61 1018.9
20260903174436 69 0.0 0.0 0.00 0.08 0.08 60 1018.8
20260903173534 70 0.0 0.0 0.00 0.08 0.08 58 1018.8
20260903172653 70 0.0 2.0 0.00 0.08 0.08 57 1018.7
20260903171734 71 0.0 0.0 0.00 0.08 0.08 55 1018.6
20260903165929 71 0.0 1.0 0.00 0.08 0.08 53 1018.5
20260903165426 72 0.0 1.0 0.00 0.08 0.08 52 1018.6
20260903164525 72 0.0 1.0 0.00 0.08 0.08 50 1018.4
20260903163626 73 0.0 1.0 0.00 0.08 0.08 49 1018.4
20260903162726 73 0.0 0.0 0.00 0.08 0.08 48 1018.4
20260903161823 75 0.0 1.0 0.00 0.08 0.08 45 1018.4
20260903160024 76 0.0 1.0 0.00 0.08 0.08 41 1018.3
20260903155144 77 0.0 0.0 0.00 0.08 0.08 38 1018.4
20260903154221 78 0.0 1.0 0.00 0.08 0.08 37 1018.4
20260903153320 78 135 1.0 2.0 0.00 0.08 0.08 37 1018.3
20260903152419 78 0.0 1.0 0.00 0.08 0.08 37 1018.4
20260903151518 78 0.0 0.0 0.00 0.08 0.08 37 1018.3
20260903150617 78 0.0 2.0 0.00 0.08 0.08 36 1018.2
20260903145717 79 1.0 2.0 0.00 0.08 0.08 37 1018.2
20260903144836 79 113 1.0 5.0 0.00 0.08 0.08 35 1018.5
20260903143015 80 113 1.0 2.0 0.00 0.08 0.08 36 1018.6
20260903142114 80 0.0 1.0 0.00 0.08 0.08 36 1018.6
20260903141214 80 0.0 3.0 0.00 0.08 0.08 34 1018.6
20260903140335 81 0.0 1.0 0.00 0.08 0.08 32 1018.5
20260903135412 81 1.0 2.0 0.00 0.08 0.08 31 1018.7
20260903134511 82 0.0 2.0 0.00 0.08 0.08 28 1018.7
20260903133612 83 0.0 2.0 0.00 0.08 0.08 28 1018.8
20260903132710 83 0.0 2.0 0.00 0.08 0.08 30 1018.7
20260903131809 84 113 0.0 2.0 0.00 0.08 0.08 28 1018.9
20260903130908 85 0.0 2.0 0.00 0.08 0.08 24 1018.9
20260903125107 86 0.0 2.0 0.00 0.08 0.08 24 1018.9
20260903124208 86 0.0 2.0 0.00 0.08 0.08 23 1018.8
20260903123328 86 0.0 2.0 0.00 0.08 0.08 23 1018.9
20260903122405 85 158 1.0 2.0 0.00 0.08 0.08 24 1019.1
20260903121505 86 0.0 2.0 0.00 0.08 0.08 25 1019.1
20260903120604 86 135 1.0 2.0 0.00 0.08 0.08 27 1019.2
20260903115703 84 0.0 1.0 0.00 0.08 0.08 28 1019.3
20260903114802 86 135 0.0 2.0 0.00 0.08 0.08 25 1019.4
20260903113902 87 135 2.0 4.0 0.00 0.08 0.08 24 1019.5
20260903112101 87 135 1.0 2.0 0.00 0.08 0.08 24 1019.5
20260903111200 87 135 1.0 3.0 0.00 0.08 0.08 26 1019.6
20260903110320 85 0.0 1.0 0.00 0.08 0.08 28 1019.8
20260903105359 86 0.0 2.0 0.00 0.08 0.08 26 1019.9
20260903104500 86 0.0 1.0 0.00 0.08 0.08 29 1020.1
20260903103557 85 135 1.0 2.0 0.00 0.08 0.08 29 1020.0
20260903102658 84 0.0 2.0 0.00 0.08 0.08 31 1020.1
20260903101756 85 3.0 6.0 0.00 0.08 0.08 29 1020.0
20260903100915 84 128 1.0 4.0 0.00 0.08 0.08 33 1020.0
20260903095054 84 135 1.0 4.0 0.00 0.08 0.08 34 1020.2
20260903094153 83 135 1.0 3.0 0.00 0.08 0.08 35 1020.3
20260903093254 83 113 1.0 4.0 0.00 0.08 0.08 38 1020.5
20260903092352 83 0.0 2.0 0.00 0.08 0.08 41 1020.3
20260903091451 83 113 1.0 2.0 0.00 0.08 0.08 37 1020.6
20260903090550 82 0.0 1.0 0.00 0.08 0.08 43 1020.6
20260903085650 82 135 1.0 3.0 0.00 0.08 0.08 43 1020.7
20260903084751 80 0.0 2.0 0.00 0.08 0.08 47 1020.8
20260903083849 79 0.0 2.0 0.00 0.08 0.08 53 1020.8
20260903082048 77 135 1.0 2.0 0.00 0.08 0.08 55 1020.9
20260903081147 77 2.0 3.0 0.00 0.08 0.08 56 1021.0
20260903080246 76 135 1.0 4.0 0.00 0.08 0.08 60 1021.2
20260903075407 74 0.0 2.0 0.00 0.08 0.08 65 1021.1
20260903074446 72 0.0 1.0 0.00 0.08 0.08 65 1021.1
20260903073544 72 0.0 2.0 0.00 0.08 0.08 64 1021.1
20260903072643 72 1.0 2.0 0.00 0.08 0.08 66 1021.0
20260903071744 72 0.0 1.0 0.00 0.08 0.08 66 1021.1
20260903070842 72 135 0.0 3.0 0.00 0.08 0.08 68 1021.1
20260903065040 71 158 1.0 2.0 0.00 0.08 0.08 70 1020.8
20260903064140 71 0.0 1.0 0.00 0.08 0.08 71 1020.7
20260903063302 70 0.0 2.0 0.00 0.08 0.08 73 1020.9
20260903062338 69 0.0 2.0 0.00 0.08 0.08 74 1020.9
20260903061439 69 0.0 0.0 0.00 0.08 0.08 75 1021.0
20260903060538 69 0.0 1.0 0.00 0.08 0.08 75 1021.0
20260903055637 69 0.0 0.0 0.00 0.08 0.08 75 1020.9
20260903054756 69 0.0 0.0 0.00 0.08 0.08 75 1021.0
20260903053918 68 0.0 2.0 0.00 0.08 0.08 81 1021.0
20260903052035 66 0.0 1.0 0.00 0.08 0.08 85 1021.0
20260903051134 65 0.0 0.0 0.00 0.08 0.08 87 1020.8
20260903050233 64 0.0 0.0 0.00 0.08 0.08 87 1021.0
20260903045413 63 0.0 0.0 0.00 0.08 0.08 87 1021.1
20260903044432 63 0.0 0.0 0.00 0.08 0.08 87 1021.0
20260903043532 62 0.0 0.0 0.00 0.08 0.08 87 1020.8
20260903042631 62 0.0 0.0 0.00 0.08 0.08 86 1020.8
20260903041731 62 0.0 0.0 0.00 0.08 0.08 86 1020.8
20260903040829 62 0.0 0.0 0.01 0.08 0.08 86 1020.9
20260903035028 62 0.0 0.0 0.06 0.08 0.08 85 1020.7
20260903034127 62 0.0 2.0 0.08 0.08 0.08 85 1020.7
20260903033227 62 0.0 0.0 0.08 0.08 0.08 84 1020.7
20260903032327 63 0.0 0.0 0.08 0.08 0.08 83 1021.0
20260903031425 63 0.0 4.0 0.08 0.08 0.08 82 1020.8
20260903030545 64 0.0 0.0 0.07 0.07 0.07 81 1020.8
20260903025646 64 0.0 3.0 0.02 0.02 0.02 79 1020.6
20260903024743 65 0.0 1.0 0.00 0.00 0.00 76 1021.2
20260903023823 67 150 2.0 5.0 0.00 0.00 0.00 72 1021.0
20260903022022 67 135 1.0 2.0 0.00 0.00 0.00 70 1020.7
20260903021141 67 135 2.0 4.0 0.00 0.00 0.00 71 1020.7
20260903020242 67 135 1.0 6.0 0.00 0.00 0.00 72 1020.6
20260903015320 66 135 1.0 3.0 0.00 0.00 0.00 73 1020.6
20260903014501 66 0.0 1.0 0.00 0.00 0.00 74 1020.6
20260903013518 66 2.0 3.0 0.00 0.00 0.00 74 1020.4
20260903012618 66 0.0 2.0 0.00 0.00 0.00 73 1020.3
20260903011717 65 135 1.0 2.0 0.00 0.00 0.00 74 1020.4
20260903010817 65 0.0 2.0 0.00 0.00 0.00 72 1020.3
20260903005015 65 0.0 0.0 0.00 0.00 0.00 72 1020.2
20260903004136 65 0.0 0.0 0.00 0.00 0.00 72 1020.2
20260903003214 65 0.0 0.0 0.00 0.00 0.00 71 1020.3
20260903002333 65 0.0 0.0 0.00 0.00 0.00 71 1020.2
20260903001413 66 0.0 0.0 0.00 0.00 0.00 70 1020.1
20260903000535 66 0.0 1.0 0.00 0.00 0.00 70 1020.2
20260902235632 66 0.0 0.0 0.00 0.00 0.00 70 1020.1
20260902234711 66 0.0 0.0 0.00 0.00 0.00 69 1020.4
20260902233812 66 0.0 1.0 0.00 0.00 0.00 69 1020.4
20260902232909 66 0.0 1.0 0.00 0.00 0.00 68 1020.4
20260902231129 67 0.0 0.0 0.00 0.00 0.00 67 1020.4
20260902230207 67 0.0 0.0 0.00 0.00 0.00 66 1020.5
20260902225307 68 0.0 0.0 0.00 0.00 0.00 65 1020.5
20260902224426 68 0.0 1.0 0.00 0.00 0.00 64 1020.4
20260902223526 68 0.0 0.0 0.00 0.00 0.00 63 1020.4
20260902222605 68 0.0 0.0 0.00 0.00 0.00 62 1020.5
20260902221704 69 0.0 0.0 0.00 0.00 0.00 62 1020.5
20260902220804 68 0.0 1.0 0.00 0.00 0.00 62 1020.4
20260902215903 68 0.0 0.0 0.00 0.00 0.00 63 1020.5
20260902214122 68 0.0 0.0 0.00 0.00 0.00 62 1020.5
20260902213201 69 0.0 0.0 0.00 0.00 0.00 61 1020.5
20260902212300 69 0.0 0.0 0.00 0.00 0.00 61 1020.4
20260902211400 68 0.0 0.0 0.00 0.00 0.00 61 1020.6
20260902210519 69 0.0 0.0 0.00 0.00 0.00 60 1020.7